Flag for Germany Weather past 2 weeks in Dachau, Bavaria, Germany

Now
52 °F

Mostly cloudy.


Feels Like: 51 °F
Forecast: 43 / 57 °F
Wind: 5 mph from Northwest

Location: Munich / Franz Josef Strauss Airport

Current Time: May 26, 2015 at 6:46:16 AM

Latest Report: May 26, 2015 at 6:20 AM


Visibility: 5 mi

Pressure: 29.92 "Hg

Humidity: 94%

Dew point: 50 °F

Location of DachauLocation

Historic Weather in Dachau — Graph

°F

Dachau temperature yesterday

Maximum temperature yesterday: 64 °F (at 3:50 PM)
Minimum temperature yesterday: 50 °F (at 3:20 AM)
Average temperature yesterday: 55 °F

Past Weeks' High & Low Weather Summary

 TemperatureHumidityPressure
High81 °F (May 12, 3:50 PM)100% (May 11, 5:20 AM)30.33 "Hg (May 11, 5:20 AM)
Low41 °F (May 11, 5:20 AM)28% (May 12, 4:20 PM)29.74 "Hg (May 18, 7:50 PM)
Average56 °F78%30.06 "Hg
* Reported May 11 5:20 AM — May 26 5:20 AM, Dachau, Weather by CustomWeather, © 2015

Note: Actual official high and low records may vary slightly from our data, if they occured in-between our weather recording intervals... More about our weather records

Advertising

Dachau weather history for previous 24 hours

 ConditionsComfort  
Time TempWeatherWind HumidityBarometerVisibility
5:20 AM
Tue, May 26
52 °FDrizzle. Low clouds.6 mph94%29.92 "Hg4 mi
4:50 AM52 °FDrizzle. Overcast.6 mph94%29.92 "Hg4 mi
4:20 AM52 °FDrizzle. Overcast.7 mph94%29.92 "Hg4 mi
3:50 AM52 °FDrizzle. Mostly cloudy.7 mph94%29.92 "Hg5 mi
3:20 AM54 °FLight rain. Passing clouds.7 mph94%29.92 "Hg4 mi
2:50 AM54 °FLight rain. Fog.5 mph94%29.92 "Hg3 mi
2:20 AM54 °FLight rain. Fog.3 mph94%29.92 "Hg3 mi
1:50 AM54 °FLight rain. Fog.5 mph94%29.92 "Hg3 mi
1:20 AM54 °FLight rain. Partly cloudy.5 mph94%29.92 "Hg4 mi
12:50 AM54 °FLight rain. Partly cloudy.5 mph94%29.92 "Hg6 mi
12:20 AM54 °FLight rain. Mostly cloudy.6 mph94%29.95 "HgN/A
11:50 PM
Mon, May 25
54 °FLight rain. Passing clouds.6 mph94%29.95 "HgN/A
11:20 PM54 °FLight rain. Passing clouds.6 mph94%29.95 "HgN/A
10:20 PM55 °FPassing clouds.3 mph82%29.92 "HgN/A
9:50 PM55 °FBroken clouds.1 mph82%29.92 "HgN/A
9:20 PM55 °FPartly sunny.3 mph82%29.92 "HgN/A
8:50 PM55 °FPartly sunny.7 mph82%29.92 "HgN/A
8:20 PM55 °FPartly sunny.3 mph82%29.89 "HgN/A
7:50 PM55 °FSprinkles. Partly sunny.9 mph82%29.89 "HgN/A
7:20 PM57 °FSprinkles. Broken clouds.16 mph77%29.92 "HgN/A
6:50 PM63 °FPartly sunny.2 mph73%29.89 "HgN/A
6:20 PM64 °FPartly sunny.3 mph60%29.89 "HgN/A
5:50 PM64 °FPartly sunny.5 mph60%29.89 "HgN/A
5:20 PM64 °FScattered clouds.8 mph64%29.89 "HgN/A
4:50 PM64 °FScattered clouds.6 mph64%29.89 "HgN/A
4:20 PM64 °FScattered clouds.5 mph60%29.92 "HgN/A
3:50 PM64 °FScattered clouds.7 mph60%29.92 "HgN/A
3:20 PM63 °FPartly sunny.6 mph64%29.95 "HgN/A
2:50 PM63 °FPartly sunny.6 mph68%29.95 "HgN/A
2:20 PM61 °FPassing clouds.5 mph72%29.95 "HgN/A
1:50 PM59 °FPassing clouds.5 mph77%29.98 "HgN/A
1:20 PM57 °FPassing clouds.5 mph77%29.98 "HgN/A
12:50 PM57 °FPartly sunny.5 mph82%29.98 "HgN/A
12:20 PM57 °FPassing clouds.3 mph82%29.98 "HgN/A
11:50 AM55 °FPassing clouds.3 mph88%30.01 "HgN/A
11:20 AM55 °FSunny.2 mph82%30.01 "Hg10 mi
10:50 AM54 °FPartly sunny.3 mph88%30.01 "HgN/A
10:20 AM54 °FLight rain. Partly sunny.1 mph88%30.01 "HgN/A
9:50 AM54 °FPassing clouds.3 mph94%30.01 "HgN/A
9:20 AM54 °FSunny.2 mph88%30.01 "Hg10 mi
8:50 AM52 °FLight rain. Clear.3 mph94%30.04 "HgN/A
8:20 AM52 °FClear.3 mph94%30.01 "Hg6 mi
7:50 AM52 °FLight rain. Partly sunny.5 mph94%30.04 "Hg6 mi
7:20 AM52 °FLight rain. Clear.5 mph94%30.04 "Hg6 mi
6:50 AM52 °FClear.3 mph94%30.04 "Hg4 mi
6:20 AM50 °FMostly cloudy.2 mph100%30.04 "Hg4 mi
Weather by CustomWeather, © 2015

See weather overviewHow to use our weather pages